Location: Newark
(7.0858°N, 171.3717°E)
Time: 15:51:32
(UTC+00:00)

Courier 1B Rocket - Pass Details

Date: 05 December 2020
Orbit: 920 x 1202 km, 28.2° (Epoch: 20 January)

Event Time Altitude Azimuth Distance (km) Brightness Sun altitude
Rises 10:02:01 0° 210° (SSW) 3,601 8.4 -52.3°
Enters shadow 10:03:11 - 205° (SSW) 3,270 8.1 -52.5°
Reaches altitude 10° 10:05:28 10° 192° (SSW) 2,694 - -53.0°
Maximum altitude 10:09:52 19° 149° (SSE) 2,179 - -54.0°
Drops below altitude 10° 10:14:26 10° 107° (ESE) 2,820 - -55.0°
Sets 10:18:07 0° 89° (E) 3,831 - -55.8°
